Location: Sungai Bunut
(2.6333°N, 113.7333°E)
Time: 19:53:40
(UTC+00:00)

Tiros 1 despin weight - Pass Details

Date: 12 December 2023
Orbit: 581 x 624 km, 48.2° (Epoch: 21 February)

Event Time Altitude Azimuth Distance (km) Brightness Sun altitude
Rises 05:32:30 0° 242° (WSW) 2,875 ? 58.6°
Reaches altitude 10° 05:35:11 10° 256° (WSW) 1,960 ? 58.2°
Maximum altitude 05:38:48 24° 310° (NW) 1,274 ? 57.7°
Drops below altitude 10° 05:42:22 10° 4° (N) 1,930 ? 57.2°
Sets 05:44:59 0° 18° (NNE) 2,820 ? 56.8°
